Wind_Speed
55 53 52 51 50 49 49 49 49 49 50 50 49 48 47 46 45 44 44 44 45 47 49 50 51 51 51 50 50 50 49 50 50 50 51 51 51 51 50 50 49 48 47 46 46 45 44 44 43 43 42 42 42 42 42 42 41 40 39 38 37 36 35 34 34 34 34 33 33 32 31 29 29 30 31 32 32 31 30 29 29 28 27 26 26 26
52 51 49 48 48 48 48 49 49 49 50 50 49 48 47 46 45 44 44 45 47 49 51 52 52 52 52 52 51 51 51 51 51 52 52 53 53 53 52 52 51 50 48 47 47 46 45 44 44 43 42 42 42 43 43 43 42 41 41 39 39 38 37 36 36 36 36 35 35 35 34 32 31 31 32 33 33 33 32 31 30 30 29 28 27 28
49 48 48 48 48 48 48 48 49 49 49 49 49 48 47 47 46 46 47 48 50 51 52 53 53 53 53 53 53 52 52 52 53 53 53 54 54 54 53 53 52 51 50 49 48 47 46 45 44 43 42 42 42 42 43 43 43 43 42 41 40 39 39 38 37 37 37 37 37 37 36 35 34 34 34 34 34 34 34 33 33 32 31 30 30 29
48 48 48 48 48 48 47 47 47 47 48 48 48 48 48 48 48 49 49 51 52 53 54 54 54 54 54 54 54 54 54 54 54 54 54 54 54 54 54 53 53 52 51 50 49 48 47 46 45 44 43 43 42 42 43 43 44 44 43 43 42 41 41 40 39 39 38 38 38 38 38 37 36 35 36 37 36 36 36 35 35 35 34 33 32 31
49 49 49 49 48 47 47 47 47 47 48 48 49 49 49 50 50 51 52 53 54 55 55 56 56 56 56 56 55 55 55 55 55 55 54 54 54 54 54 54 53 53 52 52 51 50 50 49 48 46 45 44 44 43 43 43 44 44 44 44 44 43 42 42 41 40 40 39 39 39 39 38 37 37 38 39 39 39 38 37 37 36 36 36 35 34
52 52 51 50 49 48 47 47 48 48 49 50 50 51 51 52 53 54 54 55 56 56 56 57 57 57 57 57 57 57 57 57 56 56 56 55 55 55 55 55 55 55 55 54 54 53 52 52 51 50 48 47 46 45 45 45 45 45 45 46 46 45 45 44 43 42 42 41 40 40 40 39 38 38 39 40 41 41 41 40 39 38 38 37 37 36
55 54 52 50 49 49 48 48 49 50 51 52 52 53 53 54 55 56 56 57 57 57 58 58 58 58 58 58 58 59 59 58 58 58 58 57 57 57 57 57 57 57 57 57 57 56 56 55 54 53 52 50 49 48 47 47 47 47 47 47 47 47 47 46 45 44 44 43 42 42 42 41 40 39 40 41 41 43 44 44 43 40 39 38 38 37
56 55 53 51 49 49 49 49 50 51 53 54 55 55 56 56 57 57 58 58 58 59 59 59 59 59 59 60 60 60 60 60 60 60 60 60 60 60 60 60 60 60 60 60 59 59 59 58 57 56 55 54 52 51 50 49 49 48 48 49 49 49 49 48 47 47 46 45 44 44 44 43 42 42 42 41 41 43 46 47 46 43 41 40 38 37
54 53 52 50 49 49 50 51 52 53 55 56 57 58 58 58 59 59 59 59 60 60 60 61 61 61 61 61 62 62 62 62 62 62 62 62 62 62 62 62 62 62 62 62 61 61 61 60 59 59 58 56 55 54 52 51 51 50 50 50 50 50 50 50 50 49 48 47 47 46 46 45 45 45 45 44 44 45 48 50 48 46 44 42 40 39
50 50 50 50 50 51 52 54 54 55 57 58 59 59 59 60 60 61 61 61 61 62 62 63 63 63 63 63 64 64 64 64 65 65 64 64 64 64 64 64 64 63 63 63 63 62 62 61 61 60 59 58 57 56 55 54 53 52 51 51 51 51 51 52 52 51 51 50 49 48 48 47 47 47 48 48 48 49 51 52 50 48 46 44 43 41
49 50 50 51 52 53 55 56 57 58 58 59 60 60 61 61 62 62 63 63 63 64 64 65 65 66 66 66 66 66 66 66 66 66 66 66 66 65 65 65 65 64 64 64 63 63 62 62 61 61 60 60 59 58 57 55 54 53 52 52 52 52 52 53 53 53 53 52 51 51 50 49 49 50 50 51 51 52 53 52 51 49 48 47 45 43
52 52 53 54 55 56 57 58 59 60 60 61 61 62 62 63 64 64 65 65 65 66 66 67 67 67 67 67 67 67 67 67 66 66 66 66 66 66 65 65 65 64 64 63 63 62 61 61 61 60 60 59 59 58 57 56 55 54 53 53 52 52 53 53 53 54 54 54 53 53 52 52 51 51 52 52 53 53 53 52 51 50 49 49 48 46
55 56 56 57 58 59 59 60 61 61 62 62 62 63 63 64 65 66 66 67 67 68 68 69 69 69 68 68 68 68 67 67 67 67 66 65 65 65 64 64 63 63 62 62 61 60 60 60 59 59 59 58 58 58 57 57 56 55 54 53 53 53 53 53 54 54 55 55 55 55 54 54 54 53 53 53 54 54 53 52 51 51 51 50 50 48
58 58 59 60 60 60 61 61 62 62 63 63 64 64 65 65 66 66 67 67 68 69 69 69 69 69 69 68 68 67 67 67 67 66 66 65 64 64 63 62 62 61 60 59 59 58 58 58 57 57 57 57 57 57 56 56 56 55 54 53 53 52 52 53 53 54 55 55 56 56 56 56 55 55 55 55 55 55 54 53 53 52 52 52 51 50
60 60 61 61 61 62 62 62 63 63 63 64 64 65 65 66 66 66 66 66 67 68 68 68 68 68 68 67 66 66 65 65 65 65 65 64 64 63 62 60 60 60 59 58 57 57 56 56 55 55 55 55 55 55 55 55 55 55 54 53 53 52 52 52 52 53 54 55 56 57 57 57 57 57 57 56 56 56 56 55 54 54 53 53 53 52
60 61 61 62 62 62 62 62 62 63 63 63 64 64 63 63 64 65 64 65 65 66 66 66 66 66 66 66 65 64 63 63 64 64 64 63 63 62 60 59 59 59 58 57 56 55 55 54 53 53 53 53 54 54 54 54 55 54 54 53 53 52 51 51 51 52 53 54 55 56 57 58 58 58 58 58 58 57 57 57 56 55 54 54 54 53
60 60 60 61 61 61 61 61 61 61 61 62 62 62 62 61 62 62 62 62 63 63 63 64 64 64 65 64 64 63 62 61 62 63 62 62 62 61 60 58 58 58 58 56 55 54 53 52 52 52 52 52 52 53 53 54 54 54 54 54 53 52 51 51 51 51 52 53 55 56 57 58 58 59 59 59 59 59 59 58 57 57 56 55 55 55
59 59 59 59 59 59 59 59 59 59 59 59 60 60 60 60 60 60 60 60 60 61 61 62 63 63 63 63 63 63 61 59 60 61 61 61 61 60 59 58 57 57 57 56 55 54 53 52 51 51 51 51 51 51 52 52 53 54 54 54 53 53 52 51 50 50 51 52 53 55 56 57 58 59 60 60 60 60 60 60 59 58 58 57 57 56
58 58 58 58 58 58 58 57 57 57 57 57 58 58 58 58 58 58 58 59 59 59 60 60 61 62 63 62 63 63 61 59 59 60 60 60 60 60 58 57 56 56 56 55 55 54 52 52 51 50 50 50 50 50 50 51 52 52 53 54 54 53 53 52 51 51 51 51 52 54 55 56 57 58 59 60 61 61 61 61 61 60 59 58 58 58
58 58 58 58 58 58 58 57 57 57 56 57 57 56 57 57 57 57 57 57 58 58 59 59 60 61 62 62 62 62 60 59 58 59 59 59 59 59 58 56 55 55 56 55 54 53 52 51 51 50 50 50 49 49 49 50 50 51 52 53 53 54 54 53 52 52 51 51 52 53 54 55 56 57 58 59 60 61 62 62 62 62 61 60 59 59
58 58 58 58 57 57 58 58 57 57 56 56 56 57 57 57 57 57 57 57 57 58 58 58 59 60 60 60 60 60 59 57 56 57 59 59 59 59 58 56 55 55 55 55 54 53 51 51 51 51 50 50 50 49 49 49 49 49 50 51 52 52 53 54 53 53 52 52 52 52 53 54 55 56 57 58 59 61 62 63 63 63 62 62 61 60
57 58 58 58 57 57 57 57 57 57 56 56 56 56 57 57 57 57 58 57 57 57 58 58 58 59 59 58 58 58 57 55 55 56 58 58 59 60 58 56 55 55 55 55 54 53 52 51 51 51 51 51 50 50 49 49 48 48 48 49 49 50 51 52 53 54 54 53 53 53 53 54 55 55 56 57 58 59 61 63 64 64 63 63 62 61
56 57 57 57 56 56 56 56 56 56 55 55 55 55 56 56 56 56 57 57 57 57 58 58 58 58 58 57 57 57 56 54 54 54 56 57 59 60 58 56 55 55 56 55 54 52 52 52 52 52 52 51 51 50 49 48 48 47 47 47 48 48 49 50 51 52 53 54 54 54 54 54 55 55 56 56 56 58 59 61 63 64 64 64 63 62
55 56 56 55 55 55 55 55 54 54 54 53 53 53 54 54 55 55 56 56 56 56 57 57 57 57 58 57 56 55 55 53 52 52 54 56 58 59 57 56 55 55 56 55 53 52 52 52 52 52 52 52 51 51 50 49 48 48 47 47 47 47 48 48 49 50 51 52 53 54 55 55 55 55 56 56 56 56 57 59 61 63 64 64 64 63
54 54 54 54 54 54 53 53 53 52 52 51 51 52 52 53 53 54 54 54 54 54 55 55 56 56 57 56 54 53 53 52 50 50 52 54 56 57 56 55 54 54 55 54 53 51 51 52 53 53 52 52 52 51 50 50 49 48 48 47 47 47 47 48 48 49 49 50 51 53 54 55 55 56 56 56 56 56 56 57 59 61 63 64 64 64
53 53 53 53 53 52 52 52 51 50 50 49 49 50 50 51 52 53 53 53 53 52 53 54 55 55 55 54 53 53 52 50 49 49 51 53 54 55 56 54 53 53 54 54 53 51 51 52 53 53 52 52 51 51 50 50 50 49 49 48 47 47 47 47 47 48 48 49 49 50 52 53 55 56 56 56 56 56 56 56 57 59 62 63 64 65
50 51 51 51 52 51 51 50 49 48 47 46 46 46 47 48 49 51 53 52 51 50 50 52 53 54 54 53 53 52 51 50 49 50 51 51 53 55 55 53 51 51 52 53 53 51 51 52 53 52 51 51 51 50 49 49 49 49 49 48 47 47 46 46 47 47 48 48 48 49 50 51 53 55 56 56 56 56 56 56 56 58 60 63 64 65
49 50 50 51 51 51 51 50 49 47 46 45 43 43 43 44 46 48 50 49 47 46 48 50 51 52 53 53 53 53 51 50 51 51 50 50 52 54 54 51 49 49 50 51 52 51 51 51 52 52 51 50 50 49 48 48 48 47 47 47 46 45 45 44 45 45 46 47 47 48 48 49 51 53 55 56 57 56 56 55 56 57 59 61 64 65
49 49 50 50 50 50 50 50 49 48 46 45 43 42 41 41 43 45 47 46 44 44 46 48 49 49 50 51 52 51 50 50 50 48 47 47 49 51 51 47 45 46 48 49 50 50 51 51 51 50 50 49 49 47 47 46 46 46 46 45 44 43 43 42 42 43 44 45 46 47 47 48 49 51 53 55 56 57 56 56 55 56 58 60 63 65
50 49 49 49 49 48 48 48 47 46 44 43 41 40 40 40 40 42 44 43 42 42 44 45 45 44 44 45 46 46 47 47 46 43 42 43 46 48 47 44 44 45 46 46 47 49 51 51 50 48 48 48 47 46 45 44 44 44 44 43 43 42 41 40 39 40 40 42 43 44 45 46 47 49 51 53 55 56 56 56 56 56 57 60 62 64
48 48 47 47 46 46 45 44 43 42 41 40 39 38 37 38 39 40 41 41 41 41 42 42 42 41 41 41 42 44 46 46 44 41 40 41 44 46 45 43 43 44 44 43 43 46 49 50 49 47 45 45 45 44 43 42 42 43 42 42 41 40 39 37 36 36 37 38 40 41 43 45 46 48 50 52 54 56 56 56 56 57 58 60 62 64
45 45 44 44 43 43 42 42 41 40 39 39 38 37 36 36 36 37 38 39 39 39 40 41 41 41 40 40 42 44 45 45 42 40 38 40 43 44 43 42 42 43 43 41 41 42 45 47 47 45 43 43 43 42 41 41 41 41 41 40 39 38 36 34 33 33 34 35 37 39 41 43 45 47 49 51 54 55 57 57 57 57 57 59 61 63
42 42 41 41 41 40 40 39 39 39 39 39 38 37 36 35 35 35 36 37 37 37 38 38 39 39 39 39 41 42 43 43 41 39 37 38 41 43 43 41 40 41 42 41 40 40 42 44 45 44 42 41 41 41 40 40 39 39 39 38 36 34 32 30 29 30 32 33 35 37 39 42 44 46 48 51 53 55 56 57 57 56 57 58 59 61
40 39 39 39 39 39 38 38 38 38 38 38 38 37 36 35 35 35 35 35 35 35 35 35 36 37 38 39 40 42 42 41 40 38 37 38 40 42 42 40 40 40 41 41 40 40 40 41 41 42 41 41 41 40 39 39 38 37 36 35 33 31 29 27 27 28 30 31 33 35 37 40 43 45 47 49 52 54 55 56 56 56 56 57 58 60
38 38 38 37 37 37 37 37 36 36 36 37 36 36 35 34 34 34 34 33 33 33 33 34 35 37 38 39 40 41 41 40 39 37 37 38 39 40 40 39 39 39 39 41 41 40 39 39 39 39 39 40 40 39 38 37 35 34 34 32 31 29 27 26 26 26 28 29 30 32 35 38 41 44 46 48 50 52 54 55 55 55 55 56 57 58
37 37 36 36 36 35 36 36 36 36 35 36 36 35 35 34 34 34 34 33 33 34 35 36 37 38 38 39 40 41 41 39 38 37 36 37 37 37 37 37 37 37 39 41 42 41 40 38 38 37 37 38 39 40 38 35 33 32 32 31 29 28 27 25 25 25 26 27 28 30 33 35 38 41 44 46 48 50 52 53 54 54 54 54 55 57
36 36 36 35 35 35 35 35 36 35 35 35 35 35 35 35 35 35 36 36 36 37 38 38 39 39 39 39 40 40 40 39 38 37 37 37 36 36 36 36 36 37 39 41 43 42 41 39 38 37 37 38 39 39 38 35 32 32 32 31 29 28 27 26 25 24 25 26 27 28 30 33 36 38 41 43 45 48 50 51 52 52 52 52 54 55
35 35 35 35 35 35 35 36 36 36 35 35 36 36 35 35 35 36 36 37 38 38 39 39 40 40 40 40 40 40 40 39 39 38 38 37 37 37 37 38 38 39 39 41 42 42 41 40 40 39 39 39 39 39 38 36 34 33 32 31 30 28 27 26 25 25 25 26 26 27 29 31 34 36 38 40 42 45 47 49 50 50 50 50 52 54
35 35 35 35 35 35 36 36 36 36 36 36 36 36 36 36 36 36 37 37 38 39 39 40 40 40 40 40 40 40 39 39 39 38 38 38 37 38 38 39 39 39 39 40 41 41 41 41 40 40 40 40 39 39 38 37 36 35 34 33 32 30 29 27 26 25 25 26 26 27 28 30 32 35 37 39 40 43 45 46 47 47 48 49 50 52
35 35 35 35 35 35 36 36 36 36 36 36 36 36 36 36 36 36 36 36 37 38 38 39 39 40 40 40 39 39 38 38 38 37 37 37 37 37 37 38 39 39 39 39 39 40 40 40 39 39 39 39 39 39 38 37 36 35 35 34 34 32 30 28 27 26 26 26 27 27 28 30 32 34 36 38 39 41 43 44 45 45 46 47 49 50
34 34 34 34 34 34 35 35 35 35 35 35 35 35 35 35 34 35 35 35 35 35 36 36 37 37 38 38 37 37 37 36 36 36 35 35 35 36 36 37 37 38 38 38 38 38 38 38 38 37 37 37 38 38 38 37 36 35 35 35 35 34 31 29 28 27 26 27 27 28 29 30 32 34 35 37 39 40 42 43 43 43 44 45 47 49
33 33 33 33 32 32 32 32 32 32 32 32 32 32 32 32 32 32 32 32 32 32 32 33 34 35 35 35 35 35 34 34 34 34 34 34 34 34 34 35 35 36 36 36 37 36 36 35 35 35 35 35 36 37 37 36 35 34 35 35 35 34 32 30 28 27 27 27 27 28 29 30 32 34 35 37 38 40 41 41 41 41 41 43 45 48
31 30 30 30 30 30 29 29 29 29 29 29 29 29 28 28 29 29 30 30 30 30 30 30 31 32 33 33 33 32 32 32 31 31 31 31 31 32 32 32 33 33 33 34 34 34 33 33 33 33 33 33 34 35 36 35 34 34 33 33 33 32 32 30 28 26 26 27 27 28 29 30 32 34 35 36 38 39 39 40 40 40 40 41 43 47
28 28 28 27 27 27 26 26 26 26 26 26 25 25 25 26 26 27 28 28 28 28 29 29 30 31 32 32 31 30 29 28 28 28 28 28 28 28 29 30 30 30 30 31 31 31 31 31 31 31 31 31 32 34 34 34 34 33 32 31 31 31 30 28 26 25 25 26 26 27 28 30 31 33 35 36 37 38 38 39 39 38 38 39 41 45
26 26 25 25 25 25 24 24 24 24 24 24 23 23 23 24 24 25 26 27 27 27 27 28 28 29 29 29 28 28 27 26 25 25 25 25 25 25 26 27 27 28 28 29 29 29 29 29 29 29 29 30 31 32 33 33 33 32 31 30 29 29 28 26 25 24 24 25 25 26 27 29 31 33 34 36 36 37 37 37 37 37 37 38 40 43
25 24 24 23 23 23 22 22 22 22 22 22 22 22 22 22 23 23 24 24 25 25 25 26 26 27 27 26 26 26 26 25 24 24 23 23 23 23 24 24 25 25 26 26 27 27 28 28 28 28 29 30 31 31 32 32 32 31 30 29 28 27 26 25 24 24 24 24 25 26 26 28 29 32 33 35 36 36 36 36 36 35 35 36 38 42
23 22 22 21 21 21 20 20 20 20 20 20 20 20 21 21 22 22 22 23 24 24 24 24 25 26 26 26 26 26 26 25 24 23 22 21 21 20 20 21 21 22 23 24 25 26 26 27 27 28 28 29 30 31 31 31 31 30 29 28 26 26 25 24 23 23 23 24 25 25 25 27 28 30 32 33 34 35 35 35 35 34 34 35 37 40
21 21 20 20 19 19 19 19 19 20 20 20 20 20 20 21 21 22 22 22 23 23 24 24 24 25 25 25 24 24 24 24 23 21 20 18 17 17 17 18 19 20 21 23 24 25 26 26 26 27 28 29 30 30 30 30 29 29 28 26 25 24 24 23 22 22 22 23 24 24 24 25 26 28 29 31 33 34 34 34 33 33 32 33 35 39
20 20 20 19 19 19 19 19 19 20 20 20 20 20 20 20 21 21 22 22 22 22 23 23 23 23 23 22 21 21 21 20 20 18 17 15 15 15 16 17 19 20 21 23 24 25 26 26 27 27 27 28 29 29 29 28 27 26 25 24 23 23 22 21 20 19 20 21 22 22 23 23 24 26 27 29 31 32 33 32 31 30 30 31 34 37
20 20 20 20 20 20 20 20 20 20 20 21 20 20 20 20 20 20 20 20 20 20 21 21 21 20 19 18 18 17 17 17 17 16 16 16 17 18 19 20 21 22 23 24 25 26 27 28 28 28 28 28 28 28 28 27 25 24 23 23 21 20 19 19 18 18 19 19 20 20 20 21 22 24 26 28 30 31 31 30 29 28 29 30 33 36
21 21 21 21 21 21 20 20 20 20 20 20 20 20 19 18 18 18 18 18 18 18 18 18 18 18 17 16 16 16 16 17 18 18 19 19 20 21 22 23 24 25 25 26 27 27 28 29 29 28 27 26 25 25 25 25 24 23 22 21 19 18 18 18 18 18 18 18 17 17 18 19 20 22 24 26 28 29 29 29 28 28 28 30 33 36
Wind_Direction
256 255 254 253 254 254 256 257 259 261 262 263 263 265 266 268 270 273 274 275 276 276 276 276 276 276 276 276 277 277 277 278 278 278 278 278 278 277 277 277 276 275 274 273 273 272 271 271 270 270 270 271 271 272 272 271 270 269 268 266 265 263 261 259 258 256 251 243 239 239 245 248 250 251 253 254 254 253 250 249 248 248 248 247 247 247
254 254 255 256 258 260 261 262 263 264 265 266 266 267 268 269 271 271 272 272 272 272 272 272 273 273 274 274 275 275 275 275 275 276 276 276 276 276 275 275 274 273 273 272 270 269 269 268 267 267 267 268 269 270 270 270 270 269 268 267 265 263 261 259 258 256 254 248 241 236 237 243 247 249 250 251 251 251 250 249 248 248 247 247 246 247
256 257 259 261 263 265 266 266 267 268 268 269 269 270 270 270 270 269 269 268 268 268 269 270 270 271 272 272 272 273 273 273 273 273 273 273 274 274 274 273 273 272 272 271 270 268 267 266 265 265 265 265 266 267 268 269 269 269 268 267 266 264 262 260 258 256 255 252 245 239 235 237 243 247 249 250 250 249 248 247 247 247 247 247 247 246
262 264 265 266 267 268 268 269 269 270 270 270 270 269 269 268 268 267 267 267 267 267 268 269 270 271 271 272 272 272 272 272 272 272 272 272 272 272 272 273 272 272 271 271 270 269 268 267 266 265 264 264 264 264 265 266 267 268 268 267 266 264 262 260 258 256 255 253 249 243 237 235 238 244 248 250 250 249 248 247 246 246 246 247 247 246
268 269 269 269 269 269 269 270 270 269 269 269 268 268 268 268 268 267 267 267 268 269 269 270 271 272 273 273 274 274 274 274 273 273 273 273 273 273 273 273 273 273 272 272 271 270 269 268 267 266 265 265 264 263 263 264 265 266 266 266 265 264 262 261 259 257 255 254 251 247 241 236 236 240 246 249 250 249 248 246 245 245 245 245 246 246
270 270 270 271 270 270 270 269 269 269 269 269 269 269 269 269 269 270 270 270 271 271 272 273 273 274 275 275 275 276 276 275 275 275 275 274 274 274 274 274 274 274 273 273 272 271 271 270 269 268 267 266 265 264 263 263 263 264 264 264 264 263 262 261 259 258 256 254 252 249 245 239 236 238 242 246 248 249 248 246 245 244 244 244 244 245
270 271 271 271 271 270 270 269 269 269 270 270 270 271 271 271 272 272 272 273 273 274 274 274 275 275 276 276 277 277 277 277 277 276 276 276 276 275 275 275 275 274 274 274 273 273 272 271 271 270 269 267 266 265 265 264 263 263 263 263 262 262 262 261 259 258 256 254 253 251 248 243 238 235 237 242 245 247 247 246 244 243 243 243 243 244
272 272 272 272 272 271 270 270 270 271 271 272 272 272 272 272 273 273 274 274 275 275 275 275 275 276 276 276 277 277 277 277 277 277 277 277 276 276 276 275 275 275 274 274 274 273 273 273 272 271 270 269 268 267 266 265 264 264 263 262 262 261 261 260 259 258 257 255 253 251 249 246 241 236 234 237 241 245 247 245 243 242 241 241 241 242
273 273 273 273 273 272 271 271 271 272 272 273 273 273 274 274 274 274 275 275 275 276 276 276 276 276 276 276 277 277 277 277 277 277 277 277 277 276 276 275 275 275 274 274 274 274 274 273 273 272 272 271 270 269 268 267 266 265 264 263 262 261 260 260 259 258 257 255 253 252 250 248 245 240 235 234 236 240 243 244 242 241 239 239 239 240
274 273 273 273 272 272 272 272 272 272 273 274 274 274 275 275 276 275 276 276 276 276 276 277 277 277 276 276 276 277 277 277 277 277 277 277 277 276 276 276 275 275 274 274 274 274 274 274 274 274 273 272 272 270 269 268 267 266 265 263 262 261 260 259 258 257 256 255 254 252 250 249 247 244 240 236 235 237 240 241 241 239 238 238 238 238
274 274 273 273 272 272 272 273 273 273 274 274 275 275 276 277 277 277 277 276 276 276 277 277 277 277 277 276 276 276 277 277 277 277 277 277 277 276 276 276 275 275 274 274 274 274 274 274 274 274 274 273 272 272 271 269 268 267 265 264 262 261 260 258 257 256 255 254 253 252 251 249 247 246 244 242 240 240 240 241 240 239 238 237 237 236
275 274 274 273 273 273 273 274 274 274 275 276 276 276 277 277 277 277 277 277 276 276 276 276 276 276 277 277 277 276 277 277 277 277 276 276 276 276 276 275 275 275 275 275 274 274 274 274 274 274 274 273 273 272 271 270 269 267 266 264 263 261 260 258 257 256 255 253 252 251 250 249 248 246 245 244 244 244 243 243 241 239 238 237 236 235
276 275 275 275 274 274 275 275 275 275 276 276 276 277 276 276 276 276 276 276 276 276 276 276 276 276 276 276 277 277 277 276 276 276 276 276 276 275 275 275 275 275 275 275 274 274 274 274 273 273 273 273 272 272 271 270 269 268 266 264 263 261 260 258 257 256 254 253 252 250 249 248 247 246 246 245 245 244 244 243 241 240 238 237 236 234
276 276 276 275 275 275 275 275 276 276 276 276 276 276 276 276 275 276 276 275 275 275 275 275 275 275 275 275 276 276 276 276 276 275 275 275 275 275 275 275 275 275 275 274 274 274 273 273 273 272 272 272 272 271 271 270 269 268 266 265 263 261 259 258 257 255 254 253 251 250 248 247 246 246 245 245 245 244 244 243 241 240 238 237 235 234
276 276 276 276 276 276 276 276 276 276 276 276 275 275 275 275 275 275 275 275 275 274 274 274 274 274 274 275 275 275 275 275 275 275 275 274 274 275 275 275 274 274 274 273 273 273 272 272 272 271 271 270 270 270 270 269 268 268 266 265 263 261 259 258 256 255 254 253 251 250 248 247 246 245 244 244 244 244 243 243 242 240 238 237 235 233
277 276 276 276 276 275 275 275 275 275 275 275 275 275 275 275 275 275 275 275 274 274 274 274 274 274 274 274 274 275 275 275 275 274 274 274 274 274 274 274 273 273 273 272 272 272 271 271 270 270 269 269 268 268 268 267 267 266 266 265 263 262 260 258 256 255 254 252 251 250 248 246 245 244 243 243 243 243 243 242 242 240 239 237 235 233
277 277 276 276 276 276 275 275 275 275 275 275 275 275 275 275 275 275 275 275 275 275 275 275 275 274 274 273 273 274 274 274 274 274 273 273 273 273 273 273 272 272 272 271 271 270 270 269 269 268 268 267 267 266 266 266 265 265 265 264 263 262 260 258 256 255 253 252 251 250 248 247 245 243 242 242 242 242 242 242 241 241 239 238 236 233
276 276 276 276 276 276 276 276 276 276 276 276 276 276 276 276 276 276 276 276 276 276 276 276 275 275 274 274 274 273 274 274 274 274 273 273 272 272 272 272 272 272 271 270 270 269 269 268 267 267 266 266 265 265 265 264 264 264 264 263 262 261 260 258 256 255 253 252 252 251 249 248 246 244 242 241 241 240 240 240 240 240 239 238 237 235
277 277 277 277 277 276 276 276 276 276 276 276 276 276 277 276 277 277 277 277 277 277 276 276 276 275 275 275 274 274 274 274 274 274 274 273 272 272 272 272 272 271 271 270 270 269 269 268 267 267 266 265 265 264 263 263 263 263 263 262 262 261 260 258 257 255 253 252 251 251 250 249 247 245 243 241 240 239 239 239 239 239 239 238 237 236
280 279 279 279 278 278 278 277 277 277 277 277 276 276 276 276 276 276 276 276 276 276 276 276 276 275 275 275 275 274 275 275 275 275 275 274 273 272 272 272 272 271 271 270 270 270 270 269 268 267 267 266 265 264 263 263 262 262 261 261 261 260 260 258 257 255 253 252 251 251 250 250 248 246 244 242 240 239 238 238 238 238 238 238 237 236
281 280 280 280 279 279 279 278 278 278 277 277 277 277 276 276 275 275 275 275 275 275 275 275 275 275 275 275 275 275 276 276 276 276 275 275 274 273 273 273 273 272 272 271 271 271 270 270 269 269 268 267 266 265 264 263 263 262 261 261 260 260 259 258 257 256 254 252 251 250 250 250 249 248 246 243 241 239 238 237 237 237 237 237 237 236
281 280 280 280 279 279 279 279 278 278 278 278 278 278 277 277 277 276 276 275 275 275 274 274 274 274 274 275 275 275 276 277 277 277 276 276 275 274 274 274 273 273 273 272 272 272 271 271 270 270 269 268 267 266 266 265 264 263 263 262 261 260 259 258 257 256 254 253 251 250 249 249 249 248 247 245 243 240 238 237 236 236 236 236 236 236
281 281 280 280 280 279 279 279 279 279 279 279 279 279 279 279 278 278 277 277 276 276 275 275 275 275 275 275 276 276 277 277 277 277 277 277 276 275 275 275 274 274 274 274 273 273 272 272 271 271 270 269 268 268 267 266 265 265 264 263 263 262 261 259 258 256 255 253 251 250 249 248 248 248 248 246 244 242 239 237 236 235 235 235 235 235
280 280 280 280 280 280 280 280 280 280 280 280 280 280 280 279 279 278 277 277 277 277 277 277 277 277 277 276 277 277 277 277 276 276 277 276 276 276 276 276 276 275 275 275 275 274 274 273 272 272 271 271 270 269 268 268 267 266 265 264 263 262 262 261 259 258 256 254 252 250 249 248 248 247 247 247 245 243 241 238 236 235 234 234 234 234
280 280 280 280 280 280 280 280 280 280 280 280 280 280 280 279 278 278 278 277 277 278 278 278 277 277 277 277 277 277 276 276 276 275 275 276 276 276 276 276 276 276 276 276 275 275 274 273 272 272 272 271 271 271 270 270 268 267 266 265 263 263 262 261 260 259 257 255 252 250 248 247 247 247 247 246 246 244 242 240 237 235 234 233 233 233
281 281 281 281 281 281 281 281 281 281 281 281 281 281 281 280 279 279 278 278 278 278 278 277 277 277 276 276 276 276 275 275 275 274 274 274 275 276 276 276 276 276 276 276 275 274 273 272 272 271 271 271 272 272 272 272 271 270 269 267 265 264 263 261 261 259 258 256 254 251 249 247 246 246 246 246 245 244 243 240 238 235 234 233 232 232
281 282 282 282 282 282 281 281 281 281 281 281 281 281 281 281 281 280 280 280 280 280 280 279 278 278 278 277 277 276 275 275 274 274 274 274 274 275 275 275 276 276 275 275 274 273 272 271 271 271 272 272 272 273 273 273 273 273 272 270 269 267 265 263 261 260 259 257 255 253 250 247 245 244 244 245 244 244 243 241 238 236 234 232 231 231
282 283 283 283 283 283 283 282 282 282 281 280 280 280 280 280 281 281 281 282 282 282 282 281 281 281 281 281 280 279 278 277 277 277 278 278 277 277 277 278 278 277 276 276 275 275 274 273 272 273 273 273 273 273 274 274 274 274 274 273 272 270 268 266 263 261 260 258 256 254 251 248 246 244 243 243 243 243 242 241 239 236 234 232 231 230
285 285 285 286 286 286 286 286 285 285 284 283 282 281 280 280 280 280 281 281 282 282 281 281 282 283 283 283 284 283 283 282 282 282 284 284 284 282 282 283 283 281 279 279 279 278 277 275 274 274 275 275 275 275 275 275 275 275 275 274 273 272 270 268 266 263 260 258 256 254 252 249 246 243 242 241 242 242 241 240 238 236 234 232 231 230
289 289 289 289 289 289 289 290 290 289 289 288 286 285 283 282 281 280 280 281 281 280 279 280 280 281 282 283 284 285 284 283 282 283 285 287 286 285 285 286 285 283 282 282 282 281 279 278 277 277 276 277 277 277 277 276 276 275 275 274 273 272 271 269 266 263 260 257 254 252 250 248 245 242 240 239 239 240 240 239 238 235 233 232 230 229
292 292 292 291 291 291 291 291 291 290 290 288 287 285 284 283 282 281 281 280 280 279 279 279 279 279 279 279 279 280 280 280 280 282 284 285 284 284 285 285 284 283 283 283 283 282 280 280 279 278 277 277 278 278 277 276 275 275 275 274 273 273 271 268 265 261 257 254 251 248 246 244 242 240 238 237 237 237 238 238 237 235 233 232 230 229
294 293 293 292 292 292 291 291 290 289 288 287 285 284 283 282 281 281 281 280 280 280 280 280 280 279 279 278 277 278 279 281 282 283 283 282 282 282 282 283 282 281 281 281 281 280 279 280 280 279 278 276 276 276 275 275 274 274 274 274 273 272 269 266 262 257 254 249 246 244 242 240 239 237 236 235 234 234 235 236 236 235 234 232 231 229
293 293 292 292 291 291 290 289 289 288 287 286 286 285 283 282 281 280 280 280 281 281 281 280 280 280 279 278 278 278 279 281 282 282 281 280 280 280 280 280 279 278 278 278 278 277 277 277 278 279 278 276 274 273 273 273 273 272 272 272 271 269 266 262 258 254 251 247 243 240 239 237 236 235 234 234 233 233 233 234 234 234 233 232 231 229
293 292 292 291 290 290 289 289 288 287 287 287 286 286 285 283 282 281 281 282 282 282 281 281 279 278 278 277 277 278 279 280 280 280 279 279 278 278 279 280 279 278 278 279 279 278 276 275 276 277 277 275 273 271 271 271 271 270 270 269 268 265 262 258 254 251 249 246 243 240 238 236 235 234 234 233 232 232 232 232 233 233 232 231 230 229
294 293 292 292 291 291 290 289 288 288 287 287 287 286 286 285 284 283 283 283 282 280 279 278 277 276 277 277 278 279 279 280 279 279 278 278 278 279 281 283 284 285 285 284 283 282 280 277 276 276 275 275 273 271 269 268 268 268 267 266 264 262 259 256 253 251 249 247 244 241 239 237 236 234 234 233 232 232 232 232 232 232 231 230 229 228
295 294 293 293 292 292 291 290 290 289 289 288 288 287 287 286 285 284 282 280 278 277 276 276 276 277 277 278 279 280 280 281 280 279 278 277 278 280 282 283 285 286 285 283 282 282 282 281 279 278 278 277 275 272 270 268 267 266 265 264 262 260 258 257 254 252 251 248 246 243 241 239 237 236 235 234 233 233 233 233 232 232 230 229 228 227
295 295 294 294 293 293 292 291 291 290 289 289 288 287 286 285 284 283 281 279 278 278 278 278 278 278 279 279 280 281 281 281 281 280 278 277 277 277 277 277 276 275 275 276 277 279 281 281 280 279 278 276 275 274 272 270 267 264 263 262 261 259 258 257 257 255 253 251 248 245 242 240 239 238 237 236 235 235 235 235 234 233 231 229 227 225
295 295 294 294 293 293 292 291 290 290 289 288 287 286 285 283 282 281 280 280 279 279 279 279 280 280 280 281 281 281 281 281 281 280 279 278 277 276 274 273 272 270 270 272 274 277 278 278 277 276 275 274 274 274 274 273 270 266 262 261 259 258 257 258 258 257 255 253 250 247 244 241 239 238 237 236 236 236 237 237 236 235 233 230 227 225
294 293 293 293 293 292 291 290 289 289 288 287 286 285 284 283 282 281 280 280 280 280 280 280 280 281 281 281 281 281 280 280 279 279 278 277 276 275 274 274 273 273 272 273 274 275 276 276 275 275 275 275 275 274 273 272 271 268 265 262 259 257 256 257 257 257 256 255 252 249 246 242 239 237 236 236 236 236 237 237 237 236 234 231 228 225
293 292 292 292 291 291 290 289 289 289 288 288 287 286 286 285 284 283 282 281 280 279 279 279 280 280 280 280 279 279 279 278 278 277 277 276 275 274 274 274 274 274 274 274 274 274 275 275 275 275 276 276 276 275 274 272 271 270 269 266 262 259 257 256 256 256 256 255 254 251 247 243 240 237 236 235 235 236 237 237 237 237 235 233 229 226
292 292 291 291 291 290 290 290 290 290 289 289 288 287 287 286 286 284 283 281 280 279 278 278 278 278 278 278 278 278 278 277 277 277 276 276 275 275 274 274 274 275 275 275 275 274 275 275 276 276 276 277 277 276 275 273 272 271 270 268 266 263 260 258 257 257 256 256 254 252 249 245 241 238 236 235 235 235 236 237 238 237 236 234 230 226
293 293 293 292 292 292 292 292 291 291 291 290 289 289 289 288 287 286 284 283 282 280 280 279 279 279 278 278 278 278 278 278 278 278 278 278 278 277 276 276 276 276 276 276 276 276 276 276 276 276 276 277 277 276 275 274 272 271 270 269 268 267 264 262 260 258 257 256 254 252 249 246 242 238 236 235 235 236 236 237 238 237 236 234 231 227
295 295 295 295 295 295 295 295 294 294 293 292 292 292 292 291 289 288 286 285 285 284 284 283 282 282 281 281 281 281 280 280 280 280 280 280 279 279 278 277 277 276 276 276 276 276 276 276 276 275 276 276 275 275 275 274 272 271 270 270 270 270 269 266 263 260 257 255 254 251 249 246 243 239 237 235 235 236 236 237 237 237 236 234 231 228
298 299 299 299 299 299 299 298 298 297 296 295 294 294 293 292 290 289 288 288 288 288 287 286 285 284 284 284 285 285 284 283 283 282 281 280 279 278 278 277 277 276 275 275 275 275 275 275 275 275 275 275 274 274 274 274 273 273 272 272 272 272 271 269 266 261 257 255 253 252 249 247 244 240 237 235 235 235 236 237 237 237 236 234 231 228
302 302 302 302 302 302 302 302 301 300 299 298 297 296 294 293 292 291 290 290 290 290 289 288 287 286 286 287 288 288 288 287 286 284 283 281 280 278 276 275 274 273 273 273 273 273 274 274 274 274 274 274 273 273 274 274 274 275 275 275 275 274 273 271 267 263 259 257 254 252 251 249 246 241 238 235 234 235 236 237 237 237 236 234 231 228
304 305 305 305 305 305 305 304 303 302 301 300 299 298 297 295 294 293 292 292 291 290 290 289 288 288 289 290 291 291 290 290 288 287 285 283 281 278 275 273 271 270 269 269 269 270 270 271 272 273 273 273 273 273 273 274 275 276 276 277 277 275 273 271 267 264 262 260 257 255 253 251 247 243 238 235 234 234 235 236 237 237 235 233 231 228
307 307 307 308 307 307 306 305 304 303 302 301 300 299 298 296 295 294 293 292 292 292 291 291 290 290 291 293 293 293 293 292 290 289 287 285 282 279 276 272 270 268 267 266 266 267 267 268 269 269 270 271 272 272 273 274 275 276 277 278 277 276 273 270 268 266 264 263 260 258 256 253 249 244 239 236 234 234 235 236 236 236 234 233 230 228
311 311 311 311 310 309 308 306 304 303 302 301 300 299 298 297 296 295 294 294 294 293 293 292 292 292 293 294 295 295 295 294 294 293 291 288 284 280 276 273 270 268 266 266 265 265 265 266 266 266 268 269 271 272 274 275 276 277 278 279 278 275 273 270 269 268 267 265 262 260 258 255 251 245 240 237 235 234 234 234 235 234 234 232 230 228
316 315 315 314 312 311 309 307 305 303 303 303 302 301 300 299 298 297 297 296 296 295 294 294 294 294 295 296 297 297 297 298 298 298 297 294 288 282 277 275 273 272 270 269 269 268 267 267 266 266 266 268 270 272 274 276 277 278 278 277 275 273 272 271 271 271 270 267 264 260 257 254 250 245 240 238 235 234 233 232 232 232 232 231 230 228
318 317 316 314 313 311 310 308 306 305 304 304 303 303 302 301 300 300 299 299 298 297 296 296 296 297 298 300 301 302 302 302 302 302 302 299 294 290 286 283 281 279 278 277 275 274 272 270 268 267 266 267 269 272 274 275 276 275 273 271 270 269 270 272 274 274 273 268 263 257 253 250 247 243 240 238 236 233 231 230 229 229 230 231 230 228
319 317 315 313 312 311 309 308 307 307 306 306 306 306 306 305 304 303 302 301 300 299 299 299 299 301 303 305 305 305 305 305 306 306 306 304 301 298 295 292 290 287 285 283 281 279 277 274 271 269 267 267 268 269 271 271 270 268 266 264 263 265 269 272 275 274 271 265 258 251 246 243 242 240 238 237 235 232 228 225 225 226 229 231 230 227
Height
3019 3019 3020 3019 3019 3018 3018 3019 3019 3018 3017 3018 3018 3017 3016 3016 3016 3016 3016 3016 3016 3016 3016 3016 3015 3015 3015 3015 3015 3015 3015 3015 3014 3013 3013 3013 3012 3012 3012 3013 3013 3014 3014 3014 3015 3015 3015 3015 3015 3015 3015 3015 3014 3014 3014 3014 3015 3015 3016 3016 3017 3018 3019 3019 3020 3020 3020 3021 3022 3024 3025 3026 3027 3027 3027 3026 3026 3027 3028 3029 3030 3030 3031 3031 3031 3032
3015 3015 3015 3015 3015 3014 3014 3015 3015 3014 3013 3013 3013 3013 3013 3012 3012 3013 3013 3013 3013 3013 3012 3012 3012 3012 3011 3011 3011 3011 3011 3011 3010 3010 3009 3009 3008 3008 3008 3008 3009 3009 3010 3010 3010 3010 3011 3011 3011 3011 3011 3011 3011 3011 3010 3010 3011 3011 3012 3013 3013 3014 3015 3016 3016 3017 3018 3018 3019 3020 3021 3022 3023 3024 3025 3025 3024 3024 3025 3025 3026 3027 3028 3029 3029 3030
3011 3010 3010 3010 3010 3010 3010 3010 3010 3010 3009 3009 3009 3009 3009 3009 3009 3009 3010 3010 3009 3009 3009 3008 3008 3008 3008 3008 3008 3008 3007 3007 3007 3006 3006 3005 3005 3004 3004 3004 3004 3005 3005 3005 3006 3006 3006 3007 3007 3007 3008 3008 3008 3007 3007 3007 3007 3007 3008 3009 3010 3010 3011 3012 3013 3014 3014 3015 3015 3016 3017 3019 3020 3020 3021 3022 3022 3022 3022 3022 3023 3024 3025 3026 3026 3027
3007 3006 3006 3006 3006 3006 3006 3006 3006 3006 3005 3005 3005 3005 3005 3005 3005 3005 3005 3005 3005 3005 3005 3004 3004 3003 3003 3003 3003 3003 3002 3002 3002 3002 3001 3001 3000 3000 3000 2999 3000 3000 3000 3000 3001 3001 3001 3002 3003 3003 3004 3004 3004 3004 3004 3004 3004 3004 3004 3005 3005 3006 3007 3008 3009 3010 3010 3011 3012 3013 3014 3015 3016 3017 3018 3018 3019 3020 3020 3020 3020 3021 3022 3023 3024 3024
3004 3002 3002 3002 3002 3002 3002 3002 3002 3001 3001 3001 3000 3000 3000 3000 3000 2999 2999 2999 2999 2999 2999 2999 2999 2998 2998 2997 2997 2997 2997 2996 2996 2996 2996 2996 2996 2995 2995 2995 2995 2995 2995 2995 2995 2996 2996 2997 2998 2998 2999 3000 3000 3000 3000 3000 3000 3000 3000 3001 3001 3002 3003 3004 3005 3005 3006 3007 3008 3009 3010 3011 3012 3014 3015 3015 3015 3016 3017 3017 3018 3018 3019 3020 3020 3021
3000 2999 2998 2998 2998 2998 2998 2998 2997 2997 2996 2996 2996 2995 2995 2995 2994 2994 2994 2994 2994 2994 2993 2993 2993 2992 2992 2991 2991 2991 2990 2990 2990 2991 2991 2991 2991 2991 2990 2990 2990 2990 2990 2990 2990 2990 2991 2992 2992 2993 2994 2995 2995 2996 2996 2996 2996 2996 2997 2997 2997 2998 2999 2999 3000 3001 3002 3003 3004 3005 3006 3007 3008 3010 3011 3012 3012 3012 3013 3014 3015 3015 3015 3016 3017 3018
2996 2995 2994 2994 2993 2993 2993 2993 2993 2992 2992 2991 2990 2990 2990 2990 2989 2989 2988 2988 2988 2988 2988 2987 2987 2987 2986 2986 2985 2985 2985 2985 2985 2985 2985 2985 2986 2986 2986 2985 2985 2985 2985 2985 2985 2985 2985 2986 2987 2987 2988 2989 2990 2991 2991 2992 2992 2992 2992 2993 2993 2993 2994 2995 2996 2997 2998 2999 3000 3001 3002 3003 3004 3005 3008 3008 3009 3009 3009 3010 3010 3011 3012 3012 3013 3015
2990 2990 2989 2988 2988 2988 2988 2988 2988 2987 2987 2985 2985 2985 2985 2985 2984 2984 2983 2983 2983 2982 2982 2981 2981 2981 2981 2980 2980 2980 2979 2979 2980 2980 2980 2980 2980 2980 2980 2980 2980 2980 2980 2980 2980 2980 2980 2980 2981 2982 2983 2984 2985 2986 2986 2987 2988 2988 2988 2988 2989 2989 2990 2990 2992 2993 2994 2995 2995 2997 2998 2999 3000 3000 3003 3004 3005 3005 3005 3006 3007 3007 3008 3009 3010 3011
2985 2984 2984 2983 2983 2982 2982 2982 2983 2983 2982 2980 2980 2979 2979 2979 2979 2979 2978 2978 2977 2977 2976 2975 2975 2975 2975 2975 2975 2975 2974 2974 2974 2975 2975 2975 2975 2975 2975 2975 2975 2975 2975 2975 2975 2975 2975 2975 2975 2976 2977 2978 2979 2980 2981 2982 2982 2983 2983 2983 2984 2984 2985 2986 2987 2988 2989 2990 2991 2992 2993 2994 2995 2996 2997 2999 3000 3001 3002 3002 3003 3004 3005 3005 3007 3008
2980 2979 2978 2978 2978 2977 2977 2977 2977 2977 2977 2975 2975 2974 2974 2973 2973 2973 2972 2972 2972 2971 2970 2970 2969 2969 2970 2970 2970 2969 2969 2969 2969 2969 2969 2969 2969 2969 2969 2970 2970 2970 2970 2970 2970 2970 2970 2970 2970 2971 2971 2972 2973 2974 2975 2976 2977 2977 2978 2978 2979 2979 2980 2980 2981 2983 2984 2985 2986 2987 2988 2990 2991 2992 2993 2993 2995 2996 2998 2998 2999 3000 3001 3002 3003 3004
2975 2975 2974 2973 2973 2973 2972 2972 2971 2971 2971 2970 2970 2969 2969 2968 2967 2966 2966 2966 2966 2966 2965 2964 2964 2963 2963 2963 2964 2964 2964 2963 2963 2964 2964 2963 2963 2963 2963 2964 2964 2964 2964 2965 2965 2965 2965 2965 2965 2965 2965 2966 2966 2967 2968 2970 2970 2971 2972 2973 2973 2974 2974 2975 2976 2977 2978 2979 2980 2982 2983 2984 2985 2987 2988 2989 2989 2990 2992 2993 2994 2995 2997 2998 2999 3000
2971 2970 2970 2969 2968 2968 2968 2967 2966 2966 2966 2965 2965 2964 2964 2963 2962 2961 2960 2960 2960 2960 2959 2958 2958 2958 2958 2957 2957 2957 2958 2957 2957 2957 2958 2957 2957 2957 2957 2957 2958 2958 2959 2959 2959 2960 2960 2960 2960 2960 2960 2960 2961 2961 2962 2963 2964 2965 2966 2967 2968 2968 2969 2969 2970 2971 2972 2974 2975 2976 2978 2979 2980 2981 2982 2984 2985 2985 2987 2988 2990 2991 2992 2994 2995 2996
2966 2965 2965 2964 2964 2963 2963 2962 2961 2961 2960 2960 2960 2959 2958 2958 2957 2956 2955 2954 2954 2954 2953 2952 2952 2952 2952 2952 2951 2951 2951 2951 2951 2951 2951 2951 2951 2951 2951 2951 2952 2952 2953 2953 2954 2954 2955 2955 2955 2955 2955 2955 2955 2955 2956 2957 2958 2959 2960 2961 2962 2963 2963 2964 2965 2965 2966 2967 2969 2970 2972 2973 2974 2975 2977 2978 2979 2980 2982 2983 2985 2986 2988 2990 2991 2992
2961 2960 2960 2959 2958 2958 2958 2957 2956 2955 2955 2955 2954 2953 2952 2952 2951 2950 2949 2949 2948 2948 2947 2946 2946 2947 2947 2947 2946 2946 2945 2945 2945 2945 2945 2945 2945 2945 2946 2946 2946 2946 2947 2948 2948 2949 2949 2949 2949 2950 2950 2950 2950 2950 2951 2951 2952 2953 2954 2955 2956 2957 2958 2959 2959 2960 2960 2961 2963 2964 2966 2967 2969 2970 2971 2972 2974 2975 2976 2978 2980 2981 2983 2985 2986 2988
2956 2955 2954 2953 2953 2953 2952 2952 2951 2950 2950 2949 2949 2947 2946 2946 2945 2945 2944 2943 2942 2942 2942 2941 2940 2941 2942 2942 2941 2940 2940 2939 2939 2939 2940 2940 2940 2940 2940 2940 2940 2941 2942 2942 2943 2943 2944 2944 2944 2944 2945 2945 2945 2945 2945 2946 2946 2947 2948 2949 2950 2951 2952 2953 2954 2954 2955 2955 2957 2958 2960 2961 2962 2964 2965 2967 2968 2970 2971 2973 2974 2976 2978 2980 2982 2983
2950 2950 2949 2948 2948 2948 2947 2946 2946 2945 2944 2944 2943 2942 2941 2940 2940 2939 2938 2937 2936 2936 2936 2935 2935 2935 2936 2936 2936 2935 2934 2933 2933 2933 2934 2934 2935 2935 2935 2935 2935 2935 2936 2937 2938 2938 2939 2939 2940 2940 2940 2940 2941 2941 2941 2941 2941 2942 2943 2944 2945 2946 2947 2948 2949 2949 2950 2950 2951 2952 2953 2955 2956 2958 2960 2961 2962 2964 2965 2967 2969 2971 2973 2975 2976 2978
2945 2944 2943 2943 2942 2942 2942 2941 2940 2939 2939 2938 2937 2936 2936 2935 2934 2933 2933 2932 2931 2930 2930 2930 2929 2929 2929 2930 2930 2930 2929 2928 2927 2927 2928 2929 2929 2929 2930 2930 2929 2929 2930 2932 2933 2933 2933 2934 2934 2935 2935 2935 2936 2936 2936 2936 2936 2937 2937 2938 2939 2940 2941 2942 2943 2944 2944 2945 2945 2946 2947 2949 2950 2952 2954 2955 2956 2958 2960 2961 2963 2965 2967 2969 2971 2973
2940 2939 2939 2938 2937 2937 2936 2936 2935 2934 2933 2932 2931 2930 2930 2929 2928 2928 2927 2926 2925 2925 2924 2924 2923 2923 2923 2924 2924 2924 2924 2923 2922 2920 2921 2923 2924 2924 2924 2924 2924 2924 2925 2926 2927 2928 2928 2929 2929 2929 2930 2930 2931 2931 2931 2931 2932 2932 2932 2933 2934 2935 2936 2937 2938 2939 2939 2940 2940 2941 2941 2943 2944 2946 2947 2949 2951 2952 2954 2955 2957 2959 2961 2964 2965 2968
2935 2934 2933 2932 2932 2931 2930 2930 2929 2928 2928 2927 2926 2925 2925 2924 2923 2923 2922 2921 2920 2920 2919 2918 2917 2917 2917 2918 2918 2917 2918 2918 2917 2915 2915 2917 2918 2918 2919 2919 2918 2918 2918 2920 2921 2922 2922 2923 2923 2924 2925 2925 2926 2926 2926 2927 2927 2927 2928 2928 2929 2929 2930 2931 2932 2934 2934 2935 2935 2935 2936 2937 2938 2940 2941 2943 2945 2946 2948 2950 2951 2953 2955 2958 2960 2962
2928 2928 2927 2926 2925 2925 2924 2924 2924 2923 2922 2921 2920 2920 2920 2919 2918 2918 2917 2916 2915 2915 2914 2913 2912 2912 2912 2912 2912 2911 2911 2912 2911 2910 2909 2910 2911 2912 2912 2913 2913 2912 2912 2914 2915 2916 2916 2917 2917 2918 2919 2920 2920 2920 2921 2922 2922 2922 2923 2923 2923 2924 2925 2925 2927 2928 2929 2930 2930 2930 2931 2931 2932 2934 2935 2937 2939 2940 2942 2944 2945 2947 2950 2952 2954 2956
2922 2922 2921 2921 2920 2919 2918 2918 2918 2918 2917 2915 2915 2915 2914 2913 2913 2913 2912 2911 2911 2910 2909 2908 2908 2907 2906 2907 2907 2906 2906 2906 2906 2905 2903 2903 2904 2905 2906 2907 2906 2906 2906 2908 2909 2910 2911 2910 2911 2911 2913 2913 2914 2915 2915 2916 2917 2917 2918 2918 2918 2919 2919 2920 2921 2922 2923 2924 2925 2925 2925 2926 2926 2928 2929 2931 2933 2935 2936 2938 2940 2941 2944 2946 2948 2950
2917 2916 2916 2915 2915 2914 2913 2913 2913 2912 2911 2910 2910 2909 2908 2908 2908 2907 2906 2906 2905 2905 2903 2903 2902 2902 2901 2902 2902 2901 2901 2902 2901 2899 2896 2896 2897 2899 2900 2901 2900 2900 2900 2901 2903 2905 2905 2905 2905 2905 2906 2907 2908 2908 2909 2910 2911 2911 2912 2912 2913 2913 2914 2914 2915 2916 2917 2918 2919 2920 2920 2921 2921 2922 2923 2925 2926 2928 2930 2932 2934 2935 2938 2940 2942 2945
2911 2911 2910 2910 2910 2909 2908 2908 2907 2907 2906 2906 2905 2904 2902 2902 2902 2901 2900 2899 2899 2898 2897 2897 2896 2896 2896 2897 2897 2896 2897 2897 2896 2894 2892 2891 2890 2891 2894 2895 2895 2894 2894 2895 2897 2898 2899 2898 2898 2899 2900 2900 2901 2902 2903 2904 2905 2906 2906 2907 2907 2907 2908 2908 2909 2910 2911 2912 2913 2914 2915 2915 2916 2916 2917 2919 2920 2922 2924 2926 2928 2930 2932 2934 2936 2939
2907 2906 2905 2905 2904 2904 2903 2902 2902 2902 2901 2901 2900 2899 2898 2897 2896 2895 2894 2893 2893 2892 2891 2891 2890 2890 2890 2891 2891 2892 2892 2891 2891 2890 2888 2885 2885 2885 2887 2888 2889 2888 2888 2889 2891 2892 2892 2892 2891 2892 2893 2894 2895 2895 2896 2898 2899 2900 2900 2901 2901 2902 2902 2902 2903 2904 2905 2906 2907 2908 2909 2910 2910 2911 2912 2913 2914 2916 2918 2920 2922 2924 2926 2928 2930 2932
2902 2901 2900 2900 2899 2899 2898 2898 2897 2897 2896 2896 2895 2894 2893 2891 2890 2889 2888 2888 2888 2887 2886 2885 2885 2885 2884 2885 2886 2887 2886 2886 2886 2886 2884 2881 2879 2880 2881 2883 2884 2883 2882 2883 2885 2886 2886 2885 2885 2885 2887 2888 2888 2889 2890 2891 2892 2893 2894 2895 2896 2896 2896 2896 2897 2897 2898 2899 2900 2902 2903 2904 2905 2905 2906 2907 2908 2910 2912 2914 2916 2918 2920 2922 2924 2926
2897 2896 2895 2895 2895 2894 2894 2893 2893 2892 2892 2891 2890 2889 2887 2885 2884 2883 2883 2883 2883 2882 2881 2880 2879 2878 2879 2880 2881 2881 2881 2881 2882 2881 2879 2877 2875 2875 2876 2878 2879 2879 2878 2877 2878 2880 2881 2880 2879 2880 2881 2882 2882 2883 2883 2884 2885 2886 2887 2888 2889 2890 2890 2890 2891 2891 2892 2892 2894 2895 2897 2898 2899 2900 2900 2901 2902 2904 2905 2907 2910 2911 2914 2915 2918 2920
2893 2892 2891 2890 2890 2889 2889 2889 2889 2889 2888 2887 2886 2885 2883 2880 2879 2878 2877 2877 2877 2877 2877 2875 2873 2872 2873 2874 2875 2876 2876 2877 2876 2875 2874 2873 2872 2871 2871 2873 2874 2875 2874 2872 2871 2873 2875 2874 2873 2874 2875 2876 2877 2877 2878 2878 2878 2878 2879 2880 2882 2883 2884 2885 2885 2885 2885 2886 2887 2889 2890 2892 2893 2894 2895 2896 2897 2898 2900 2901 2903 2905 2907 2909 2911 2913
2889 2888 2887 2886 2885 2884 2884 2884 2884 2884 2884 2884 2883 2881 2879 2877 2875 2874 2872 2872 2873 2873 2872 2870 2868 2868 2867 2868 2869 2869 2870 2871 2871 2870 2869 2868 2868 2867 2866 2867 2869 2870 2869 2866 2865 2866 2868 2869 2868 2868 2869 2871 2871 2872 2872 2872 2872 2872 2872 2873 2875 2875 2877 2878 2878 2879 2880 2880 2881 2882 2884 2885 2887 2888 2889 2890 2891 2892 2894 2895 2897 2899 2901 2903 2904 2906
2884 2883 2882 2881 2880 2879 2879 2879 2879 2879 2879 2879 2878 2877 2875 2874 2872 2871 2869 2868 2869 2869 2867 2865 2865 2864 2863 2863 2862 2863 2864 2865 2865 2865 2865 2864 2863 2862 2861 2862 2864 2864 2863 2860 2859 2860 2861 2862 2862 2863 2864 2865 2865 2866 2866 2866 2866 2866 2866 2867 2868 2869 2870 2871 2871 2872 2873 2874 2875 2876 2877 2879 2880 2882 2883 2885 2885 2886 2888 2889 2891 2893 2895 2896 2897 2900
2878 2878 2877 2876 2875 2874 2874 2873 2873 2873 2873 2873 2873 2872 2871 2870 2869 2867 2866 2865 2865 2865 2864 2862 2862 2862 2861 2860 2860 2859 2859 2860 2860 2862 2862 2861 2859 2856 2855 2857 2859 2859 2857 2856 2855 2855 2855 2855 2856 2858 2860 2860 2860 2860 2861 2861 2860 2860 2860 2861 2862 2863 2864 2865 2865 2866 2866 2867 2868 2869 2870 2872 2874 2875 2877 2878 2880 2881 2882 2883 2885 2886 2888 2889 2890 2893
2873 2873 2872 2871 2870 2870 2870 2869 2868 2868 2868 2868 2868 2868 2867 2866 2865 2863 2862 2862 2861 2860 2860 2859 2858 2858 2858 2858 2858 2856 2854 2855 2857 2859 2860 2859 2855 2852 2851 2854 2855 2854 2853 2852 2853 2852 2849 2848 2849 2853 2855 2855 2855 2855 2855 2855 2855 2855 2855 2855 2857 2858 2859 2859 2860 2860 2860 2861 2862 2863 2864 2865 2867 2869 2870 2872 2873 2875 2876 2877 2878 2880 2880 2882 2884 2886
2869 2869 2868 2867 2866 2866 2865 2865 2864 2864 2864 2863 2863 2863 2863 2862 2861 2860 2859 2858 2857 2857 2856 2855 2854 2854 2854 2854 2853 2852 2850 2852 2854 2856 2857 2855 2852 2848 2848 2850 2851 2850 2849 2848 2849 2849 2846 2843 2843 2846 2850 2852 2851 2850 2850 2851 2851 2851 2851 2851 2852 2853 2854 2854 2855 2855 2855 2855 2856 2857 2858 2860 2861 2862 2864 2865 2867 2868 2869 2870 2872 2874 2875 2877 2879 2881
2866 2865 2864 2863 2863 2862 2862 2861 2860 2860 2859 2859 2859 2858 2858 2858 2857 2856 2855 2855 2854 2853 2853 2852 2851 2850 2850 2850 2849 2848 2848 2849 2851 2852 2852 2851 2848 2845 2844 2845 2847 2847 2845 2844 2844 2845 2844 2841 2840 2841 2844 2846 2846 2845 2845 2846 2847 2848 2848 2848 2849 2849 2850 2850 2850 2850 2850 2850 2851 2852 2853 2854 2855 2856 2858 2860 2861 2862 2864 2865 2867 2868 2870 2872 2874 2876
2862 2861 2861 2860 2860 2859 2858 2857 2857 2856 2855 2855 2855 2855 2854 2854 2854 2853 2852 2851 2851 2850 2849 2849 2848 2847 2846 2845 2845 2845 2845 2846 2847 2848 2848 2847 2845 2842 2840 2841 2842 2842 2842 2840 2840 2840 2840 2839 2838 2838 2839 2840 2840 2841 2841 2842 2843 2844 2844 2845 2845 2845 2846 2846 2846 2846 2846 2846 2847 2848 2848 2849 2850 2851 2853 2854 2855 2857 2858 2860 2861 2863 2865 2866 2869 2871
2859 2858 2857 2856 2856 2855 2855 2854 2853 2853 2852 2852 2851 2851 2850 2850 2850 2849 2849 2848 2848 2848 2847 2846 2845 2844 2843 2842 2841 2841 2841 2842 2843 2844 2844 2843 2841 2839 2838 2837 2837 2838 2838 2837 2836 2836 2835 2835 2835 2835 2835 2834 2835 2836 2837 2838 2839 2839 2840 2840 2841 2841 2842 2842 2843 2843 2842 2842 2843 2844 2844 2845 2846 2847 2848 2849 2850 2852 2854 2855 2856 2858 2860 2861 2864 2866
2855 2855 2854 2853 2853 2852 2851 2850 2850 2849 2849 2848 2848 2847 2847 2847 2846 2845 2845 2845 2845 2844 2843 2841 2841 2840 2840 2840 2839 2838 2837 2837 2839 2840 2840 2839 2838 2837 2836 2835 2835 2836 2836 2835 2833 2832 2832 2831 2831 2831 2831 2831 2831 2831 2832 2834 2835 2836 2836 2836 2837 2838 2838 2838 2839 2839 2839 2839 2840 2840 2841 2841 2842 2843 2844 2845 2846 2848 2849 2850 2852 2854 2855 2857 2859 2861
2852 2851 2850 2850 2849 2849 2848 2847 2846 2846 2846 2845 2845 2844 2844 2843 2843 2842 2841 2840 2840 2839 2839 2838 2837 2837 2836 2836 2835 2835 2834 2834 2835 2835 2835 2835 2835 2835 2835 2833 2833 2835 2835 2833 2831 2829 2829 2828 2828 2828 2828 2828 2827 2827 2827 2829 2831 2832 2832 2833 2834 2835 2835 2835 2835 2835 2836 2836 2836 2837 2837 2838 2839 2840 2841 2842 2843 2844 2845 2846 2848 2849 2851 2853 2855 2857
2850 2849 2847 2847 2846 2846 2845 2844 2843 2843 2842 2842 2841 2840 2840 2840 2839 2839 2838 2837 2836 2836 2835 2835 2834 2833 2833 2833 2832 2831 2831 2831 2831 2831 2831 2831 2831 2831 2830 2829 2829 2829 2830 2829 2827 2826 2826 2825 2825 2824 2824 2824 2824 2824 2824 2825 2826 2827 2828 2829 2830 2831 2831 2832 2832 2833 2833 2833 2833 2833 2834 2835 2835 2836 2837 2839 2840 2840 2841 2842 2844 2845 2847 2849 2850 2852
2847 2846 2845 2844 2844 2843 2842 2841 2840 2839 2839 2839 2838 2837 2836 2836 2836 2835 2835 2834 2834 2833 2832 2831 2830 2830 2830 2829 2829 2828 2828 2827 2827 2827 2827 2827 2827 2827 2826 2825 2824 2824 2825 2825 2824 2823 2822 2822 2821 2820 2820 2820 2820 2820 2821 2822 2822 2823 2824 2825 2826 2827 2828 2829 2830 2830 2830 2830 2830 2830 2831 2831 2832 2833 2834 2835 2835 2836 2837 2838 2840 2841 2843 2845 2847 2849
2844 2843 2842 2842 2841 2840 2839 2838 2837 2836 2836 2835 2835 2834 2833 2833 2833 2832 2832 2831 2830 2830 2829 2828 2827 2826 2826 2825 2825 2825 2824 2824 2824 2824 2824 2824 2824 2823 2823 2822 2821 2820 2821 2821 2820 2820 2819 2818 2817 2817 2817 2817 2816 2816 2817 2818 2819 2820 2820 2820 2821 2823 2825 2826 2826 2826 2826 2826 2827 2827 2827 2828 2829 2829 2830 2831 2832 2832 2833 2834 2836 2837 2839 2841 2843 2845
2842 2840 2840 2839 2838 2837 2836 2835 2835 2834 2833 2832 2831 2831 2830 2830 2829 2829 2828 2827 2827 2826 2826 2825 2824 2823 2823 2822 2822 2821 2821 2821 2821 2821 2821 2820 2820 2820 2820 2819 2818 2818 2817 2817 2816 2816 2815 2815 2814 2814 2814 2814 2813 2813 2813 2814 2815 2816 2817 2817 2817 2818 2820 2822 2823 2823 2823 2823 2823 2824 2824 2825 2825 2826 2826 2827 2828 2829 2830 2831 2832 2834 2835 2837 2839 2841
2839 2838 2837 2836 2835 2835 2834 2833 2832 2831 2830 2830 2829 2828 2827 2827 2826 2825 2824 2824 2823 2823 2823 2822 2821 2820 2819 2819 2819 2819 2819 2818 2818 2818 2818 2818 2817 2817 2816 2816 2815 2815 2815 2814 2813 2812 2812 2812 2811 2811 2811 2811 2811 2810 2810 2810 2811 2813 2813 2813 2813 2814 2816 2817 2819 2820 2820 2820 2820 2820 2821 2821 2821 2822 2823 2824 2825 2825 2826 2827 2829 2830 2832 2834 2835 2837
2836 2835 2835 2834 2833 2832 2831 2830 2830 2829 2828 2827 2826 2825 2825 2824 2823 2822 2821 2820 2820 2820 2819 2819 2818 2817 2815 2815 2815 2816 2816 2816 2815 2815 2815 2815 2815 2814 2814 2813 2813 2813 2812 2811 2810 2810 2809 2809 2809 2808 2808 2809 2808 2808 2807 2807 2808 2809 2810 2810 2810 2811 2811 2812 2815 2816 2816 2816 2816 2817 2817 2818 2818 2819 2820 2820 2821 2822 2823 2824 2825 2826 2828 2830 2832 2834
2834 2833 2832 2832 2831 2830 2829 2828 2827 2826 2825 2825 2824 2823 2822 2822 2820 2820 2818 2818 2817 2817 2816 2816 2815 2814 2813 2813 2812 2812 2813 2813 2813 2813 2812 2812 2812 2812 2811 2811 2810 2810 2810 2809 2808 2807 2807 2807 2806 2806 2806 2806 2806 2805 2804 2804 2805 2805 2806 2807 2808 2808 2808 2809 2810 2812 2812 2813 2813 2814 2814 2815 2815 2815 2816 2817 2818 2819 2820 2821 2822 2823 2825 2827 2828 2830
2832 2831 2830 2830 2829 2828 2827 2826 2825 2824 2823 2822 2821 2821 2820 2820 2818 2817 2816 2815 2815 2815 2814 2814 2813 2811 2810 2810 2810 2810 2810 2810 2810 2810 2810 2810 2810 2810 2809 2809 2808 2808 2807 2806 2805 2805 2805 2804 2804 2804 2804 2804 2803 2802 2802 2802 2802 2803 2803 2804 2805 2805 2805 2805 2807 2808 2809 2809 2810 2810 2811 2811 2811 2812 2812 2813 2814 2815 2816 2818 2819 2820 2822 2823 2825 2827
2830 2829 2828 2827 2826 2825 2825 2824 2823 2822 2821 2820 2820 2819 2818 2817 2816 2815 2815 2814 2813 2812 2812 2811 2810 2809 2808 2808 2808 2808 2807 2807 2807 2807 2808 2807 2807 2807 2806 2806 2806 2805 2805 2804 2803 2803 2802 2802 2802 2802 2801 2801 2800 2800 2800 2800 2800 2800 2800 2801 2802 2802 2802 2803 2804 2805 2805 2806 2806 2807 2808 2808 2808 2808 2809 2810 2811 2812 2814 2815 2816 2817 2819 2820 2822 2824
2828 2827 2826 2826 2825 2824 2823 2822 2821 2820 2819 2818 2818 2817 2816 2815 2815 2814 2813 2812 2811 2810 2810 2809 2809 2808 2807 2806 2806 2806 2805 2805 2805 2805 2805 2805 2805 2805 2804 2804 2803 2803 2803 2802 2801 2801 2800 2800 2800 2800 2800 2799 2798 2797 2797 2798 2798 2798 2798 2799 2800 2800 2800 2800 2801 2802 2803 2803 2803 2804 2805 2805 2805 2805 2806 2807 2808 2810 2810 2812 2813 2815 2816 2817 2819 2821
2827 2826 2825 2824 2823 2822 2821 2820 2820 2818 2817 2817 2816 2815 2815 2814 2813 2812 2811 2811 2810 2809 2808 2807 2807 2806 2805 2805 2805 2804 2803 2802 2802 2802 2803 2803 2803 2802 2802 2801 2801 2800 2800 2800 2799 2799 2799 2798 2798 2798 2797 2797 2796 2795 2795 2795 2796 2796 2796 2797 2797 2798 2798 2798 2799 2800 2800 2800 2800 2801 2801 2802 2802 2802 2803 2804 2805 2806 2808 2809 2811 2812 2814 2815 2816 2818
2825 2824 2823 2822 2821 2821 2820 2819 2818 2817 2816 2815 2814 2814 2813 2812 2811 2810 2810 2809 2808 2807 2807 2806 2805 2805 2804 2804 2803 2803 2802 2801 2800 2800 2800 2800 2800 2800 2800 2799 2799 2798 2798 2797 2797 2796 2796 2795 2795 2795 2795 2795 2794 2793 2793 2793 2794 2794 2794 2795 2795 2795 2796 2796 2797 2797 2798 2798 2798 2798 2799 2799 2799 2800 2801 2802 2803 2804 2805 2807 2809 2810 2812 2813 2814 2815
2824 2823 2822 2821 2820 2819 2818 2817 2816 2815 2814 2814 2813 2812 2811 2811 2810 2809 2808 2807 2807 2806 2805 2805 2804 2803 2802 2802 2802 2801 2800 2800 2799 2799 2799 2799 2798 2798 2797 2797 2796 2796 2795 2795 2794 2794 2793 2793 2792 2792 2792 2792 2792 2791 2791 2791 2792 2792 2793 2793 2793 2794 2794 2794 2795 2795 2795 2795 2795 2796 2796 2796 2797 2797 2798 2799 2800 2801 2803 2805 2807 2808 2810 2811 2812 2813
2823 2822 2821 2820 2819 2818 2817 2816 2815 2814 2813 2812 2811 2811 2810 2810 2809 2808 2807 2806 2805 2805 2804 2803 2802 2802 2801 2800 2800 2800 2799 2799 2798 2797 2797 2797 2796 2795 2795 2795 2794 2794 2793 2792 2791 2791 2790 2790 2789 2789 2790 2790 2791 2790 2790 2790 2790 2790 2791 2791 2791 2792 2792 2792 2792 2793 2793 2793 2793 2793 2794 2794 2795 2795 2796 2798 2798 2799 2801 2803 2805 2806 2808 2809 2809 2810